When you browse on this site, cookies collect data to enhance your experience and personalize the content and advertising you see.
Visit our Privacy Policy to learn more. By continuing to use the site, you agree to this use of cookies and data.
  • In Germany
  • List of Countries
  • For 7 days
  • Water Temperature
  • Satellite Maps
  • Weather Map
  • Weather Widgets
  • user-avatar
    Login

    Hourly Weather Mykhalkiv

    Today, 19 November, Monday

    Time Temperature Precipitation Wind Pressure Humidity
    00:00 -1°C° 0 mm 2 mps 751 mmHg 76%
    01:00 +1°C° 0 mm 2 mps 751 mmHg 76%
    02:00 +1°C° 0 mm 2 mps 751 mmHg 76%
    03:00 -1°C° 0 mm 2 mps 751 mmHg 77%
    04:00 -1°C° 0 mm 2 mps 750 mmHg 78%
    05:00 -1°C° 0 mm 2 mps 750 mmHg 79%
    06:00 -1°C° 0.1 mm 3 mps 750 mmHg 80%
    07:00 -1°C° 0.1 mm 3 mps 750 mmHg 82%
    08:00 -1°C° 0.1 mm 3 mps 750 mmHg 84%
    09:00 -1°C° 0.4 mm 3 mps 750 mmHg 84%
    10:00 -1°C° 0.4 mm 3 mps 750 mmHg 84%
    11:00 -2°C° 0.4 mm 4 mps 750 mmHg 85%
    12:00 0°C° 0.3 mm 3 mps 750 mmHg 84%
    13:00 0°C° 0.3 mm 3 mps 750 mmHg 83%
    14:00 0°C° 0.3 mm 3 mps 750 mmHg 82%
    15:00 0°C° 0.4 mm 3 mps 750 mmHg 83%
    16:00 0°C° 0.4 mm 3 mps 751 mmHg 85%
    17:00 -1°C° 0.4 mm 2 mps 751 mmHg 87%
    18:00 -1°C° 0.3 mm 3 mps 751 mmHg 87%
    19:00 -1°C° 0.3 mm 3 mps 751 mmHg 88%
    20:00 -1°C° 0.3 mm 3 mps 752 mmHg 89%
    21:00 -1°C° 0 mm 2 mps 752 mmHg 89%
    22:00 -1°C° 0 mm 2 mps 752 mmHg 88%
    23:00 -2°C° 0 mm 2 mps 752 mmHg 88%

    Tomorrow, 20 November, Tuesday

    Time Temperature Precipitation Wind Pressure Humidity
    00:00 -2°C° 0 mm 2 mps 752 mmHg 87%
    01:00 -2°C° 0 mm 2 mps 753 mmHg 87%
    02:00 -2°C° 0 mm 2 mps 753 mmHg 86%
    03:00 -2°C° 0 mm 2 mps 753 mmHg 86%
    04:00 -3°C° 0 mm 2 mps 753 mmHg 86%
    05:00 -3°C° 0 mm 2 mps 753 mmHg 86%
    06:00 -3°C° 0 mm 2 mps 753 mmHg 86%
    07:00 -3°C° 0 mm 2 mps 753 mmHg 86%
    08:00 -1°C° 0 mm 1 mps 753 mmHg 86%
    09:00 -3°C° 0 mm 2 mps 753 mmHg 83%
    10:00 -2°C° 0 mm 2 mps 753 mmHg 80%
    11:00 -1°C° 0 mm 2 mps 753 mmHg 77%
    12:00 0°C° 0 mm 3 mps 752 mmHg 77%
    13:00 0°C° 0 mm 3 mps 752 mmHg 78%
    14:00 +1°C° 0 mm 3 mps 751 mmHg 78%
    15:00 0°C° 0 mm 3 mps 751 mmHg 81%
    16:00 -1°C° 0 mm 3 mps 751 mmHg 84%
    17:00 -1°C° 0 mm 3 mps 751 mmHg 87%
    18:00 -1°C° 0 mm 3 mps 751 mmHg 87%
    19:00 -1°C° 0 mm 3 mps 751 mmHg 87%
    20:00 -2°C° 0 mm 4 mps 752 mmHg 88%
    21:00 -2°C° 0 mm 4 mps 752 mmHg 87%
    22:00 -2°C° 0 mm 4 mps 752 mmHg 87%
    23:00 -2°C° 0 mm 5 mps 752 mmHg 86%

    Day after tomorrow, 21 November, Wednesday

    Time Temperature Precipitation Wind Pressure Humidity
    00:00 -2°C° 0 mm 5 mps 752 mmHg 86%
    01:00 -2°C° 0 mm 5 mps 751 mmHg 86%
    02:00 -2°C° 0 mm 4 mps 751 mmHg 86%
    03:00 -2°C° 0.1 mm 4 mps 751 mmHg 86%
    04:00 -3°C° 0.1 mm 4 mps 751 mmHg 87%
    05:00 -3°C° 0.1 mm 4 mps 751 mmHg 87%
    06:00 -3°C° 0.1 mm 4 mps 751 mmHg 87%
    07:00 -3°C° 0.1 mm 4 mps 751 mmHg 87%
    08:00 -3°C° 0.1 mm 4 mps 752 mmHg 87%
    09:00 -3°C° 0.1 mm 4 mps 752 mmHg 86%
    10:00 -3°C° 0.1 mm 4 mps 752 mmHg 85%
    11:00 -2°C° 0.1 mm 4 mps 752 mmHg 84%
    12:00 -2°C° 0.1 mm 4 mps 752 mmHg 84%
    13:00 -1°C° 0.1 mm 3 mps 752 mmHg 83%
    14:00 0°C° 0.1 mm 3 mps 752 mmHg 83%
    15:00 -1°C° 0 mm 3 mps 752 mmHg 84%
    16:00 -1°C° 0 mm 3 mps 752 mmHg 85%
    17:00 -1°C° 0 mm 2 mps 752 mmHg 86%
    18:00 -1°C° 0 mm 2 mps 753 mmHg 86%
    19:00 -1°C° 0 mm 2 mps 753 mmHg 87%
    20:00 -2°C° 0 mm 2 mps 753 mmHg 87%
    21:00 -2°C° 0 mm 2 mps 753 mmHg 88%
    22:00 -2°C° 0 mm 2 mps 754 mmHg 89%
    23:00 -3°C° 0 mm 2 mps 754 mmHg 89%

    22 November, Thursday

    Time Temperature Precipitation Wind Pressure Humidity
    00:00 -3°C° 0 mm 2 mps 754 mmHg 90%
    01:00 -3°C° 0 mm 2 mps 754 mmHg 91%
    02:00 -3°C° 0 mm 2 mps 754 mmHg 92%
    03:00 -4°C° 0 mm 2 mps 754 mmHg 93%
    04:00 -4°C° 0 mm 2 mps 754 mmHg 93%
    05:00 -4°C° 0 mm 2 mps 754 mmHg 94%
    06:00 -4°C° 0 mm 2 mps 755 mmHg 94%
    07:00 -4°C° 0 mm 2 mps 755 mmHg 94%
    08:00 -5°C° 0 mm 2 mps 755 mmHg 94%
    09:00 -4°C° 0 mm 2 mps 755 mmHg 90%
    10:00 -3°C° 0 mm 2 mps 755 mmHg 86%
    11:00 -2°C° 0 mm 2 mps 755 mmHg 83%
    12:00 -1°C° 0 mm 2 mps 755 mmHg 81%
    13:00 -1°C° 0 mm 2 mps 755 mmHg 79%
    14:00 +2°C° 0 mm 1 mps 755 mmHg 77%
    15:00 +1°C° 0 mm 1 mps 755 mmHg 79%
    16:00 0°C° 0 mm 1 mps 755 mmHg 82%
    17:00 -1°C° 0 mm 1 mps 756 mmHg 85%
    18:00 -1°C° 0 mm 1 mps 756 mmHg 85%
    19:00 -1°C° 0 mm 1 mps 756 mmHg 85%
    20:00 -2°C° 0 mm 1 mps 757 mmHg 86%
    21:00 -2°C° 0 mm 1 mps 757 mmHg 86%
    22:00 -2°C° 0 mm 1 mps 757 mmHg 86%
    23:00 -2°C° 0 mm 1 mps 757 mmHg 86%

    23 November, Friday

    Time Temperature Precipitation Wind Pressure Humidity
    00:00 -2°C° 0 mm 1 mps 758 mmHg 86%
    01:00 -2°C° 0 mm 1 mps 758 mmHg 86%
    02:00 -2°C° 0 mm 1 mps 758 mmHg 86%
    03:00 -2°C° 0 mm 1 mps 758 mmHg 86%
    04:00 -2°C° 0 mm 1 mps 758 mmHg 86%
    05:00 -2°C° 0 mm 1 mps 758 mmHg 86%
    06:00 -3°C° 0 mm 1 mps 758 mmHg 86%
    07:00 -3°C° 0 mm 1 mps 758 mmHg 86%
    08:00 -3°C° 0 mm 1 mps 759 mmHg 85%
    09:00 -1°C° 0 mm 1 mps 759 mmHg 81%
    10:00 0°C° 0 mm 1 mps 759 mmHg 77%
    11:00 +1°C° 0 mm 1 mps 759 mmHg 73%
    12:00 +1°C° 0 mm 1 mps 759 mmHg 72%
    13:00 +2°C° 0 mm 1 mps 758 mmHg 71%
    14:00 +2°C° 0 mm 1 mps 758 mmHg 70%
    15:00 +1°C° 0 mm 1 mps 758 mmHg 74%
    16:00 0°C° 0 mm 1 mps 758 mmHg 77%
    17:00 -1°C° 0 mm 1 mps 758 mmHg 81%
    18:00 -3°C° 0 mm 2 mps 758 mmHg 81%
    19:00 -3°C° 0 mm 2 mps 758 mmHg 82%
    20:00 -4°C° 0 mm 2 mps 758 mmHg 83%
    21:00 -4°C° 0 mm 2 mps 758 mmHg 83%
    22:00 -4°C° 0 mm 2 mps 758 mmHg 83%
    23:00 -4°C° 0 mm 2 mps 758 mmHg 83%

    24 November, Saturday

    Time Temperature Precipitation Wind Pressure Humidity
    00:00 -4°C° 0 mm 2 mps 758 mmHg 83%
    01:00 -4°C° 0 mm 2 mps 757 mmHg 83%
    02:00 -4°C° 0 mm 2 mps 757 mmHg 83%
    03:00 -4°C° 0 mm 2 mps 757 mmHg 83%
    04:00 -5°C° 0 mm 2 mps 756 mmHg 83%
    05:00 -5°C° 0 mm 2 mps 756 mmHg 83%
    06:00 -5°C° 0 mm 2 mps 756 mmHg 82%
    07:00 -5°C° 0 mm 2 mps 756 mmHg 81%
    08:00 -5°C° 0 mm 2 mps 756 mmHg 81%
    09:00 -4°C° 0 mm 2 mps 755 mmHg 77%
    10:00 -3°C° 0 mm 2 mps 755 mmHg 73%
    11:00 -2°C° 0 mm 2 mps 755 mmHg 69%
    12:00 -1°C° 0 mm 2 mps 754 mmHg 69%
    13:00 -1°C° 0 mm 2 mps 754 mmHg 69%
    14:00 +1°C° 0 mm 2 mps 753 mmHg 69%
    15:00 -1°C° 0 mm 2 mps 753 mmHg 72%
    16:00 -2°C° 0 mm 2 mps 753 mmHg 76%
    17:00 -3°C° 0 mm 2 mps 753 mmHg 79%
    18:00 -3°C° 0 mm 2 mps 753 mmHg 80%
    19:00 -4°C° 0 mm 2 mps 753 mmHg 80%
    20:00 -4°C° 0 mm 2 mps 753 mmHg 81%
    21:00 -4°C° 0 mm 2 mps 753 mmHg 81%
    22:00 -4°C° 0 mm 2 mps 752 mmHg 81%
    23:00 -4°C° 0 mm 2 mps 752 mmHg 81%
    Show more